This demonstration page uses our WeatherBlox Daily Observations layout. Learn more.

Left ArrowRight Arrow

38.88101, -77.10428

Hourly Observations for January 12, 2021

Temp ( °F °C ) Dew Point ( °F °C ) Humidity (%) Winds ( mph kmh ) Pressure ( in mb ) Visibility ( mi km ) Precip ( " mm )
12:52 am 00:52 Mostly Cloudy 32 0 28 -2.2 85 85 SW 5 7 30.20 1023 10 16 0.00 0.00
1:52 am 01:52 Mostly Cloudy 31 -0.6 28 -2.2 89 89 SSW 5 7 30.21 1023 10 16 0.00 0.00
2:52 am 02:52 Mostly Cloudy 31 -0.6 28 -2.2 89 89 Calm 30.20 1023 9 14 0.00 0.00
3:52 am 03:52 Partly Cloudy 30 -1.1 28 -2.2 92 92 Calm 30.18 1022 8 13 0.00 0.00
4:52 am 04:52 Partly Cloudy 30 -1.1 27 -2.8 88 88 S 5 7 30.18 1022 9 14 0.00 0.00
5:52 am 05:52 Mostly Clear 30 -1.1 28 -2.2 92 92 SSW 3 6 30.18 1022 7 11 0.00 0.00
6:52 am 06:52 Mostly Clear 30 -1.1 27 -2.8 88 88 Calm 30.19 1022 8 13 0.00 0.00
7:52 am 07:52 Mostly Sunny 31 -0.6 28 -2.2 89 89 N 3 6 30.19 1022 8 13 0.00 0.00
8:52 am 08:52 Mostly Sunny 35 1.7 31 -0.6 85 85 Calm 30.21 1023 8 13 0.00 0.00
9:52 am 09:52 Sunny 37 2.8 31 -0.6 79 79 Calm 30.22 1024 10 16 0.00 0.00
10:52 am 10:52 Mostly Sunny 42 5.6 28 -2.2 58 58 NW 9 15 30.22 1023 10 16 0.00 0.00
11:52 am 11:52 Mostly Sunny 44 6.7 27 -2.8 51 51 N 7 11 30.18 1022 10 16 0.00 0.00
12:52 pm 12:52 Mostly Sunny 47 8.3 26 -3.3 44 44 N 5 7 30.15 1021 10 16 0.00 0.00
1:52 pm 13:52 Sunny 48 8.9 26 -3.3 42 42 N 7 11 30.12 1020 10 16 0.00 0.00
2:52 pm 14:52 Sunny 49 9.4 26 -3.3 41 41 NNE 7 11 30.10 1019 10 16 0.00 0.00
3:52 pm 15:52 Sunny 48 8.9 26 -3.3 42 42 NNE 5 7 30.09 1019 10 16 0.00 0.00
4:52 pm 16:52 Sunny 45 7.2 28 -2.2 52 52 Calm 30.10 1019 10 16 0.00 0.00
5:52 pm 17:52 Clear 43 6.1 27 -2.8 53 53 SSW 5 7 30.11 1020 10 16 0.00 0.00
6:52 pm 18:52 Clear 40 4.4 31 -0.6 70 70 S 5 7 30.11 1020 10 16 0.00 0.00
7:52 pm 19:52 Clear 39 3.9 31 -0.6 73 73 Calm 30.13 1020 10 16 0.00 0.00
8:52 pm 20:52 Clear 38 3.3 29 -1.7 70 70 S 3 6 30.14 1021 10 16 0.00 0.00
9:52 pm 21:52 Clear 36 2.2 29 -1.7 76 76 Calm 30.14 1021 10 16 0.00 0.00
10:52 pm 22:52 Mostly Cloudy 35 1.7 30 -1.1 82 82 Calm 30.14 1021 9 14 0.00 0.00
11:52 pm 23:52 Partly Cloudy 32 0 28 -2.2 85 85 N 6 9 30.12 1020 10 16 0.00 0.00

Powered by AerisWeather